Offutt Air Force Base, NE

2:05 AM CDT on July 29, 2016 (GMT -0500)
Offutt Air Force Base

Weather History for KOFF - May, 2014

Change the Weather History Date:

Thursday, May 29, 2014

  Actual Average Record
Temperature  
Mean Temperature 74 °F -  
Max Temperature 84 °F 74 °F 95 °F (2000)
Min Temperature 64 °F 55 °F 51 °F (1997)
Cooling Degree Days 9    
Growing Degree Days 24 (Base 50)    
Moisture  
Dew Point 68 °F    
Average Humidity 83    
Maximum Humidity 100    
Minimum Humidity 56    
Precipitation  
Precipitation 0.00 in - - ()
Sea Level Pressure  
Sea Level Pressure 30.00 in    
Wind  
Wind Speed 6 mph (ENE)    
Max Wind Speed 12 mph    
Max Gust Speed -    
Visibility 10 miles    
Events      
Averages and records for this station are not official NWS values.
T = Trace of Precipitation, MM = Missing Value Source: NWS Daily Summary

Daily Weather History Graph

Daily Weather History Graph

Search for Another Location

Airport or City:

Trip Planner

Search our weather history database for the weather conditions in past years. The results will help you decide how hot, cold, wet, or windy it might be!

Date:

Astronomy

May. 29, 2014 Rise Set
Actual Time 5:54 AM CDT 8:47 PM CDT
Civil Twilight 5:22 AM CDT 9:20 PM CDT
Nautical Twilight 4:40 AM CDT 10:01 PM CDT
Astronomical Twilight 3:53 AM CDT 10:49 PM CDT
Moon 6:49 AM CDT 9:38 PM CDT
Length of Visible Light 15h 58m
Length of Day
14h 52m
New Moon, 1% of the Moon is Illuminated
May 29
New Moon
Jun 5
First Quarter
Jun 12
Full
Jun 19
Last Quarter
Jun 27
New

Hourly Weather History & Observations

Time (CDT) Temp. Heat Index Dew Point Humidity Pressure Visibility Wind Dir Wind Speed Gust Speed Precip Events Conditions
12:58 AM 68.0 °F - 67.6 °F 99% 29.99 in 10.0 mi NE 4.6 mph - N/A   Clear
1:58 AM 66.9 °F - 66.6 °F 99% 29.98 in 10.0 mi NNE 4.6 mph - N/A   Clear
2:58 AM 67.1 °F - 66.9 °F 99% 29.98 in 10.0 mi NNE 5.8 mph - N/A   Clear
3:58 AM 66.0 °F - 65.7 °F 99% 29.99 in 10.0 mi NNE 3.5 mph - N/A   Clear
4:58 AM 64.6 °F - 64.6 °F 100% 29.99 in 10.0 mi NNE 5.8 mph - N/A   Clear
5:58 AM 64.4 °F - 64.4 °F 100% 30.00 in 10.0 mi NNE 5.8 mph - N/A   Clear
6:58 AM 65.1 °F - 65.1 °F 100% 30.01 in 10.0 mi NNE 4.6 mph - N/A   Clear
7:58 AM 68.4 °F - 68.2 °F 99% 30.02 in 10.0 mi NE 4.6 mph - N/A   Clear
8:58 AM 71.8 °F - 70.3 °F 95% 30.04 in 10.0 mi NE 5.8 mph - N/A   Clear
9:58 AM 74.5 °F - 71.4 °F 90% 30.04 in 10.0 mi Variable 5.8 mph - N/A   Partly Cloudy
10:23 AM 75.2 °F - 71.6 °F 89% 30.04 in 10.0 mi ENE 5.8 mph - N/A   Mostly Cloudy
10:48 AM 75.2 °F - 71.6 °F 89% 30.03 in 10.0 mi ENE 4.6 mph - N/A   Scattered Clouds
10:58 AM 76.1 °F - 70.9 °F 84% 30.03 in 10.0 mi ENE 4.6 mph - N/A   Mostly Cloudy
11:08 AM 77.0 °F - 71.6 °F 83% 30.03 in 10.0 mi NE 6.9 mph - N/A   Mostly Cloudy
11:18 AM 77.0 °F - 69.8 °F 78% 30.03 in 10.0 mi ENE 8.1 mph - N/A   Mostly Cloudy
11:28 AM 77.0 °F - 69.8 °F 78% 30.03 in 10.0 mi East 8.1 mph - N/A   Mostly Cloudy
11:33 AM 77.0 °F - 69.8 °F 78% 30.03 in 10.0 mi East 5.8 mph - N/A   Mostly Cloudy
11:58 AM 77.7 °F - 69.1 °F 75% 30.03 in 10.0 mi ENE 10.4 mph - N/A   Scattered Clouds
12:58 PM 80.4 °F 83.0 °F 67.5 °F 65% 30.00 in 10.0 mi ENE 5.8 mph - N/A   Scattered Clouds
1:58 PM 82.6 °F 85.9 °F 68.9 °F 63% 29.98 in 10.0 mi ESE 11.5 mph - N/A   Scattered Clouds
2:58 PM 84.2 °F 88.1 °F 69.4 °F 61% 29.97 in 10.0 mi East 11.5 mph - N/A   Scattered Clouds
3:58 PM 84.0 °F 87.3 °F 68.4 °F 59% 29.96 in 10.0 mi SE 9.2 mph - N/A   Partly Cloudy
4:58 PM 84.2 °F 87.1 °F 67.5 °F 57% 29.95 in 10.0 mi ESE 9.2 mph - N/A   Scattered Clouds
5:58 PM 83.7 °F 86.0 °F 66.4 °F 56% 29.94 in 10.0 mi ESE 8.1 mph - N/A   Partly Cloudy
6:58 PM 82.6 °F 84.7 °F 66.0 °F 57% 29.93 in 10.0 mi East 10.4 mph - N/A   Clear
7:58 PM 79.9 °F - 67.3 °F 65% 29.95 in 10.0 mi ESE 10.4 mph - N/A   Clear
8:58 PM 74.7 °F - 65.7 °F 73% 29.96 in 10.0 mi ESE 5.8 mph - N/A   Clear
9:58 PM 69.3 °F - 67.6 °F 95% 29.99 in 10.0 mi East 4.6 mph - N/A   Clear
10:58 PM 69.3 °F - 69.1 °F 99% 29.99 in 10.0 mi East 5.8 mph - N/A   Scattered Clouds
11:58 PM 73.0 °F - 71.2 °F 94% 29.99 in 10.0 mi East 8.1 mph - N/A   Clear